GP1970 Weather Reports


time (UTC)temp
C
wind
direction
speed
KPH
gust
KPH
rain 1hr
cm
rain 24hr
cm
rain mn
cm
humidity
%
barometer
mb
20260504150524 3 192 1.6 3.2 0.36 0.79 0.53 85 1003.0
20260504140516 4 261 1.6 3.2 0.18 0.43 0.18 80 1003.8
20260504130532 6 203 0.0 3.2 0.00 0.25 0.00 72 1003.7
20260504110521 2 0.0 0.0 0.00 0.25 0.00 79 1003.6
20260504100519 -1 0.0 0.0 0.00 0.25 0.00 86 1003.9
20260504081529 -2 0.0 0.0 0.00 0.25 0.00 85 1004.3
20260504080515 -2 0.0 0.0 0.00 0.25 0.00 85 1004.4
20260504050526 -1 0.0 0.0 0.00 0.25 0.00 78 1004.9
20260504045530 -1 0.0 1.6 0.00 0.25 0.00 76 1004.8
20260504044515 -1 0.0 0.0 0.00 0.25 0.00 76 1005.1
20260504043519 -1 0.0 0.0 0.00 0.25 0.00 75 1005.1
20260504042543 0 203 0.0 1.6 0.00 0.25 0.00 75 1005.1
20260504041527 0 0.0 0.0 0.00 0.25 0.00 74 1005.1
20260504040530 0 0.0 0.0 0.00 0.25 0.00 73 1004.9
20260504035516 0 0.0 0.0 0.00 0.25 0.00 72 1004.9
20260504034519 0 0.0 0.0 0.00 0.25 0.00 71 1005.0
20260504033523 0 0.0 0.0 0.00 0.25 0.00 70 1005.1
20260504032527 0 0.0 0.0 0.00 0.25 0.00 69 1005.1
20260504031531 1 0.0 0.0 0.00 0.25 0.00 68 1005.4
20260504030516 1 0.0 0.0 0.00 0.25 0.00 67 1005.1
20260504025520 1 0.0 0.0 0.00 0.25 0.00 66 1005.1
20260504024523 1 203 1.6 3.2 0.00 0.25 0.00 66 1005.1
20260504023607 1 0.0 0.0 0.00 0.25 0.00 64 1004.9
20260504022531 2 215 1.6 3.2 0.00 0.25 0.00 64 1004.8
20260504021537 2 0.0 0.0 0.00 0.25 0.00 64 1004.9
20260504020520 2 180 0.0 1.6 0.00 0.25 0.00 63 1005.2
20260504015524 2 0.0 0.0 0.00 0.25 0.00 61 1005.1
20260504014521 2 0.0 0.0 0.00 0.25 0.00 59 1004.6
20260504013519 3 0.0 0.0 0.00 0.25 0.00 57 1004.9
20260504012517 4 0.0 0.0 0.00 0.25 0.00 56 1005.0
20260504011540 5 0.0 0.0 0.00 0.25 0.00 55 1004.5
20260504010604 5 0.0 0.0 0.00 0.25 0.00 52 1004.5
20260504005527 6 270 0.0 1.6 0.00 0.25 0.00 50 1005.0
20260504004531 6 346 3.2 4.8 0.00 0.25 0.00 49 1004.9
20260504003556 7 23 0.0 4.8 0.00 0.25 0.00 49 1004.9
20260504002521 7 4 4.8 9.7 0.00 0.25 0.00 48 1004.8
20260504001524 7 297 3.2 6.4 0.00 0.25 0.00 47 1004.3
20260504000528 7 338 6.4 12.9 0.00 0.25 0.00 47 1004.4
20260503235531 8 327 6.4 11.3 0.00 0.25 0.00 47 1004.4
20260503234517 8 341 4.8 8.0 0.00 0.25 0.00 46 1004.4
20260503233541 9 323 6.4 9.7 0.00 0.25 0.00 45 1004.4
20260503232524 10 330 9.7 14.5 0.00 0.25 0.00 45 1004.3
20260503231528 10 328 9.7 14.5 0.00 0.25 0.00 44 1004.3
20260503230532 10 316 11.3 17.7 0.00 0.25 0.00 44 1003.9
20260503225517 10 269 9.7 14.5 0.00 0.25 0.25 44 1004.2
20260503224521 11 281 9.7 17.7 0.00 0.25 0.25 44 1003.9
20260503223524 11 265 8.0 16.1 0.00 0.25 0.25 44 1004.1
20260503222528 11 299 12.9 17.7 0.00 0.25 0.25 44 1004.1
20260503221532 11 271 12.9 22.5 0.00 0.25 0.25 44 1003.7
20260503220517 11 263 11.3 16.1 0.00 0.25 0.25 44 1003.8
20260503215521 11 297 12.9 20.9 0.00 0.25 0.25 44 1004.4
20260503214524 11 298 11.3 19.3 0.00 0.28 0.25 45 1004.8
20260503213522 12 293 12.9 19.3 0.00 0.30 0.25 45 1004.4
20260503212520 11 312 8.0 11.3 0.00 0.30 0.25 46 1004.1
20260503211517 10 263 6.4 14.5 0.00 0.30 0.25 46 1004.0
20260503210515 11 293 9.7 14.5 0.00 0.30 0.25 46 1003.9
20260503205525 10 293 8.0 12.9 0.00 0.30 0.25 47 1004.4
20260503204528 10 298 11.3 17.7 0.00 0.30 0.25 47 1004.4
20260503203552 10 292 6.4 11.3 0.00 0.30 0.25 47 1004.1
20260503202518 10 299 9.7 16.1 0.00 0.30 0.25 47 1004.1
20260503201522 10 285 11.3 17.7 0.00 0.30 0.25 47 1004.6
20260503200545 10 294 9.7 17.7 0.00 0.30 0.25 47 1004.6
20260503195549 11 295 6.4 16.1 0.00 0.30 0.25 47 1004.2
20260503194533 10 271 11.3 19.3 0.00 0.30 0.25 47 1004.0
20260503193518 10 284 11.3 17.7 0.00 0.30 0.25 47 1004.0
20260503192522 11 316 12.9 20.9 0.00 0.30 0.25 47 1004.2
20260503191526 11 239 9.7 19.3 0.00 0.30 0.25 47 1004.6
20260503190529 11 279 8.0 17.7 0.00 0.30 0.25 48 1004.5
20260503185515 10 285 11.3 14.5 0.00 0.30 0.25 48 1004.5
20260503184518 11 269 11.3 17.7 0.00 0.30 0.25 49 1004.4
20260503183522 11 315 11.3 17.7 0.00 0.30 0.25 49 1004.7
20260503182526 11 274 11.3 16.1 0.00 0.30 0.25 49 1004.8
20260503181609 11 295 11.3 19.3 0.00 0.30 0.25 49 1005.1
20260503180515 11 319 8.0 16.1 0.00 0.30 0.25 50 1005.2
20260503175519 11 289 12.9 19.3 0.25 0.30 0.25 51 1004.6
20260503174522 11 298 11.3 17.7 0.25 0.30 0.25 51 1004.7
20260503173606 10 285 9.7 16.1 0.25 0.30 0.25 52 1005.0
20260503172544 10 260 14.5 25.7 0.25 0.30 0.25 52 1005.1
20260503171515 10 259 12.9 20.9 0.25 0.30 0.25 52 1005.0
20260503170519 11 254 16.1 20.9 0.25 0.30 0.25 52 1004.9